Regional Weather Roundup
Issued by NWS Midland/Odessa, TX

Home | Current Version | Previous Version | Text Only | Print | Product List | Glossary On
Versions: 1 2 3 4 5 6 7 8 9 10 11 12 13 14 15 16 17 18 19 20 21 22 23 24 25 26 27 28 29 30 31 32 33 34 35 36 37 38 39 40 41 42 43 44 45 46 47 48 49 50
000
ASUS44 KMAF 301701
RWRMAF
MIDLAND AREA WEATHER ROUNDUP
NATIONAL WEATHER SERVICE MIDLAND TX
1200 PM CDT TUE AUG 30 2016

...IN SOUTHWEST TEXAS AND SOUTHEAST NEW MEXICO...

CITY           SKY/WX    TMP DP  RH WIND       PRES   REMARKS
ALPINE         CLOUDY    70  63  79 CALM      30.29S
ANDREWS        NOT AVBL
ARTESIA        DRIZZLE   70  70 100 N10       30.24R
BIG SPRING     MOSUNNY   81  68  64 NE9       30.19S
CARLSBAD       LGT RAIN  67  64  90 N7        30.20S
DRYDEN           N/A     78  70  76 NE6       30.11
FORT STOCKTON  CLOUDY    73  69  87 NE5       30.17R
GUAD PASS        N/A     64  62  93 NE9       30.31
HOBBS          LGT RAIN  68  68 100 NE5       30.25R
MARFA          CLOUDY   N/A N/A N/A NE7       30.27R
MIDLAND AIRPK  PTSUNNY   78  66  65 E12       30.19S
MIDLAND INTL   PTSUNNY   78  66  66 E10       30.18S
ODESSA         PTSUNNY   76  66  71 E9        30.20R
PECOS          MOSUNNY   76  69  77 E8        30.16S
PRESIDIO       CLOUDY    78  65  62 NE9       30.13S
SEMINOLE       PTSUNNY   76  65  70 E9        30.23S
SNYDER           N/A     79  67  68 E12       30.18S
WINK           CLOUDY    78  66  66 SE8       30.15S
$$
...OTHER STATIONS IN TEXAS...

CITY           SKY/WX    TMP DP  RH WIND       PRES   REMARKS
ABILENE        PTSUNNY   84  69  60 E9        30.14S
AMARILLO       RAIN      67  65  93 N8        30.29S FOG
AUSTIN         PTSUNNY   83  74  74 NE10      30.03S
BROWNSVILLE    PTSUNNY   90  73  57 N10       29.89F
CORPUS CHRISTI CLOUDY    79  76  90 NE17      29.94R
DALLAS FTW     MOSUNNY   90  73  57 NE7       30.07S
DEL RIO        CLOUDY    81  71  71 E6        30.04S
EL PASO        LGT RAIN  68  65  90 E8        30.23R
HOUSTON INT    CLOUDY    90  73  57 NE9       29.98F
LUBBOCK        PTSUNNY   75  66  73 E9        30.23S
SAN ANGELO     CLOUDY    79  68  69 E8        30.13R
SAN ANTONIO    CLOUDY    81  72  74 NE13      30.03S
WACO           SUNNY     88  73  61 NE9       30.06S
WICHITA FALLS  NOT AVBL
$$
...OTHER LOCATIONS IN NEW MEXICO...

CITY           SKY/WX    TMP DP  RH WIND       PRES   REMARKS
ALAMAGORDO     CLOUDY    73  57  56 W5        30.24S
ALBUQUERQUE    MOSUNNY   74  49  41 E12G21    30.35S
CANNON AFB     LGT RAIN  66  66 100 E8        30.30S
CLOVIS         CLOUDY    66  63  88 NE9       30.30S
HOLLOMAN AFB   CLOUDY    74  56  54 N2        30.22R
ROSWELL        LGT RAIN  69  65  86 N8        30.25S
RUIDOSO          N/A     59  54  82 SE7       30.42S
SANTA FE       PTSUNNY   68  47  46 NE9       30.40S
TRUTH OR CONSE SUNNY     75  53  46 NE12      30.27S
TUCUMCARI      RAIN      67  64  90 E5        30.30S FOG
$$




USA.gov is the U.S. government's official web portal to all federal, state and local government web resources and services.